[[{"header":{"parameterUnit":"m.s-1","parameterCategory":1,"la1":30.2991,"la2":30.254,"lo1":-89.0895,"lo2":-89.0444,"dy":0.0017,"dx":0.0017,"nx":28,"ny":28,"refTime":"2025-08-23T03:00:00:Z","depth":0,"parameterNumber":2,"parameterNumberName":"U-component_of_WINDS"},"data":[0,0,0,0,0,0,0,0,0,0,0,0,0,0,0,0,0,0,0,0,0,0,0,0,0,0,0,0,0,0,0,0,0,0,0,0,0,0,0,0,0,0,0,0,0,0,0,0,0,0,0,0,0,0,0,0,0,0,-0.4743,-0.4743,0,-0.4764,-0.4764,-0.4764,-0.4743,-0.4742,-0.4741,-0.4741,-0.476,-0.4761,-0.4762,0,0,0,0,0,0,0,0,0,0,0,0,0,-0.4684,-0.4685,-0.4743,-0.4743,-0.4744,-0.4764,-0.4764,-0.4764,-0.4743,-0.4742,-0.4741,-0.474,-0.4759,-0.4761,-0.4762,0,0,0,0,0,0,0,0,0,0,0,0,0,-0.4707,-0.4685,-0.4743,-0.4736,-0.4735,-0.4764,-0.4764,-0.4764,-0.4743,-0.4742,-0.4741,-0.474,-0.4759,-0.4761,-0.4763,-0.4799,0,0,-0.4768,-0.4769,0,0,0,0,0,0,0,0,-0.4706,-0.4709,-0.4736,-0.4736,-0.4736,-0.475,-0.475,-0.4776,-0.4744,-0.474,-0.4741,-0.4739,-0.4757,-0.4759,-0.4766,-0.48,-0.4801,-0.4769,-0.477,-0.4771,-0.4771,0,0,0,0,0,0,0,-0.4704,-0.4708,-0.4751,-0.4737,-0.4736,-0.4731,-0.4733,-0.4755,-0.4755,-0.474,-0.4739,-0.4742,-0.4757,-0.4764,-0.4766,-0.4801,-0.4769,-0.477,-0.4771,-0.4772,-0.4866,-0.4867,0,0,0,0,0,0,-0.4704,-0.4707,-0.475,-0.4752,-0.4718,-0.4733,-0.4735,-0.4746,-0.4755,-0.4755,-0.4743,-0.4741,-0.4761,-0.4764,-0.4767,-0.481,-0.4771,-0.4772,-0.4773,-0.4865,-0.4866,-0.4868,0,0,0,0,0,0,-0.4703,-0.4708,-0.475,-0.4729,-0.4734,-0.4735,-0.4748,-0.4747,-0.4754,-0.4757,-0.4757,-0.475,-0.476,-0.4764,-0.4791,-0.481,-0.4773,-0.4775,-0.4863,-0.4865,-0.4867,-0.4896,0,0,0,0,0,0,-0.4701,-0.4708,-0.4722,-0.473,-0.4735,-0.4774,-0.4749,-0.4749,-0.4758,-0.4756,-0.4764,-0.4764,-0.476,-0.4788,-0.4793,-0.4812,-0.4776,-0.4861,-0.4864,-0.4866,-0.4893,-0.4899,-0.4904,0,0,0,0,0,-0.4699,-0.4729,-0.4723,-0.4728,-0.4753,-0.4776,-0.4779,-0.4774,-0.476,-0.4774,-0.4775,-0.4763,-0.4807,-0.4791,-0.4796,-0.4816,-0.486,-0.4863,-0.4866,-0.4891,-0.4898,-0.4903,0,0,0,0,0,0,-0.4722,-0.4729,-0.4723,-0.4756,-0.4766,-0.4772,-0.4789,-0.4781,-0.4794,-0.4791,-0.4784,-0.4786,-0.4815,-0.4818,-0.4801,-0.4852,-0.4831,-0.4835,-0.4849,-0.4855,-0.486,-0.4858,-0.4778,0,0,0,0,0,-0.4731,-0.4749,-0.4755,-0.4783,-0.4789,-0.4788,-0.4798,-0.4794,-0.4803,-0.4806,-0.481,-0.4819,-0.4834,-0.4845,-0.486,-0.4894,-0.4895,-0.491,-0.4915,-0.4919,-0.4923,-0.4941,-0.4948,-0.4878,-0.4878,-0.4878,0,0,-0.475,-0.4756,-0.4768,-0.4788,-0.4795,-0.4814,-0.4792,-0.4812,-0.4826,-0.4809,-0.4835,-0.4839,-0.4848,-0.4879,-0.4893,-0.4882,-0.4943,-0.4923,-0.4926,-0.4928,-0.4945,-0.4952,-0.4958,-0.488,-0.4879,-0.4879,0,0,-0.4793,-0.48,-0.4825,-0.4832,-0.4843,-0.4843,-0.4849,-0.4857,-0.4859,-0.4885,-0.4873,-0.4889,-0.4916,-0.4923,-0.4931,-0.4978,-0.4967,-0.4983,-0.5009,-0.5027,-0.5032,-0.5037,-0.5054,-0.506,-0.4986,-0.4986,-0.4986,0,-0.4814,-0.4843,-0.4838,-0.486,-0.4869,-0.4856,-0.4881,-0.4888,-0.4903,-0.491,-0.4898,-0.4932,-0.4938,-0.497,-0.4982,-0.4988,-0.4995,-0.4981,-0.5032,-0.5037,-0.5041,-0.5057,-0.5063,-0.4988,-0.4988,-0.4988,-0.4988,0,-0.4869,-0.4888,-0.4907,-0.4923,-0.4934,-0.4957,-0.4956,-0.4968,-0.4963,-0.4964,-0.4991,-0.4997,-0.5012,-0.502,-0.5015,-0.5052,-0.5045,-0.5033,-0.5012,-0.505,-0.5064,-0.507,-0.4991,-0.499,-0.4989,-0.4989,0,0,-0.4926,-0.494,-0.4947,-0.4954,-0.4965,-0.498,-0.5003,-0.5019,-0.5029,-0.504,-0.5058,-0.5082,-0.5071,-0.5079,-0.5075,-0.5091,-0.5128,-0.5077,-0.5077,-0.5086,-0.5169,-0.5178,-0.5185,-0.5121,-0.5122,-0.5123,-0.5168,0,-0.4969,-0.5009,-0.5006,-0.5044,-0.5062,-0.505,-0.507,-0.5079,-0.508,-0.5095,-0.5097,-0.5114,-0.5098,-0.5103,-0.5118,-0.512,-0.5144,-0.5117,-0.5138,-0.5139,-0.5135,-0.5192,-0.5202,-0.5243,-0.5174,-0.5175,-0.5175,0,-0.5025,-0.5039,-0.5079,-0.5088,-0.5095,-0.5113,-0.5128,-0.5143,-0.5152,-0.5152,-0.5162,-0.5155,-0.5178,-0.5157,-0.5187,-0.5169,-0.5177,-0.5179,-0.5181,-0.5182,-0.5159,-0.5195,-0.5256,-0.5263,-0.5184,-0.5184,-0.5183,0,-0.5063,-0.5091,-0.5119,-0.5125,-0.5137,-0.5149,-0.5155,-0.5163,-0.5173,-0.5186,-0.5193,-0.5208,-0.5216,-0.5227,-0.5225,-0.521,-0.5256,-0.5235,-0.5256,-0.5256,-0.5265,-0.5264,-0.5329,-0.5272,-0.5272,-0.5271,-0.5271,0,-0.5111,-0.5135,-0.5136,-0.5152,-0.5179,-0.5176,-0.5202,-0.5206,-0.5214,-0.5231,-0.5222,-0.5238,-0.5234,-0.5249,-0.5247,-0.5272,-0.5276,-0.5276,-0.5276,-0.5277,-0.5277,-0.5282,-0.5279,-0.5273,-0.5273,-0.5272,-0.5272,0,-0.5157,-0.5158,-0.5187,-0.5196,-0.5199,-0.5219,-0.5226,-0.5242,-0.5243,-0.5264,-0.5269,-0.5271,-0.5289,-0.5288,-0.5308,-0.5306,-0.5338,-0.5334,-0.5335,-0.5333,-0.5354,-0.5352,-0.5424,-0.5433,-0.537,-0.5371,-0.5371,0,-0.5187,-0.5206,-0.5218,-0.5229,-0.5235,-0.5253,-0.5264,-0.5261,-0.5272,-0.5286,-0.5299,-0.5317,-0.5331,-0.536,-0.5362,-0.5378,-0.5374,-0.5398,-0.5376,-0.5377,-0.5373,-0.5372,-0.5374,-0.5402,-0.5402,-0.5403,-0.5403,0,-0.5241,-0.5241,-0.5257,-0.5274,-0.5287,-0.53,-0.5311,-0.532,-0.5319,-0.5332,-0.5351,-0.5362,-0.5383,-0.54,-0.5415,-0.542,-0.5411,-0.5411,-0.5416,-0.5417,-0.5417,-0.5417,-0.5346,-0.5409,-0.5408,-0.5408,-0.5407,-0.5407,-0.528,-0.5296,-0.5307,-0.5325,-0.5334,-0.5345,-0.536,-0.5364,-0.538,-0.5398,-0.5395,-0.5416,-0.5426,-0.5445,-0.5451,-0.5467,-0.5459,-0.5467,-0.5469,-0.5471,-0.5473,-0.5415,-0.547,-0.547,-0.547,-0.547,-0.547,0,-0.5332,-0.5339,-0.5356,-0.5373,-0.5388,-0.538,-0.5393,-0.5405,-0.5424,-0.5434,-0.5448,-0.547,-0.5487,-0.5491,-0.5507,-0.5519,-0.5516,-0.5524,-0.5522,-0.5524,-0.548,-0.5473,-0.5526,-0.5526,-0.5526,-0.5526,-0.5526,-0.5526,-0.5362,-0.5389,-0.539,-0.5421,-0.5428,-0.5449,-0.5457,-0.5467,-0.5475,-0.55,-0.5515,-0.5518,-0.5526,-0.5543,-0.5558,-0.5559,-0.5565,-0.5574,-0.5573,-0.5532,-0.5527,-0.5521,-0.5515,-0.5576,-0.5576,-0.5615,-0.5616,-0.5616]},{"header":{"parameterUnit":"m.s-1","parameterCategory":1,"la1":30.2991,"la2":30.254,"lo1":-89.0895,"lo2":-89.0444,"dy":0.0017,"dx":0.0017,"nx":28,"ny":28,"refTime":"2025-08-23T03:00:00:Z","depth":0,"parameterNumber":3,"parameterNumberName":"V-component_of_WINDS"},"data":[0,0,0,0,0,0,0,0,0,0,0,0,0,0,0,0,0,0,0,0,0,0,0,0,0,0,0,0,0,0,0,0,0,0,0,0,0,0,0,0,0,0,0,0,0,0,0,0,0,0,0,0,0,0,0,0,0,0,-2.3202,-2.3202,0,-2.3197,-2.3197,-2.3197,-2.3165,-2.3164,-2.3163,-2.3163,-2.3157,-2.3158,-2.3158,0,0,0,0,0,0,0,0,0,0,0,0,0,-2.3185,-2.3185,-2.3202,-2.3202,-2.3202,-2.3197,-2.3197,-2.3197,-2.3165,-2.3164,-2.3163,-2.3162,-2.3157,-2.3158,-2.3158,0,0,0,0,0,0,0,0,0,0,0,0,0,-2.3187,-2.3185,-2.3202,-2.3186,-2.3184,-2.3197,-2.3197,-2.3197,-2.3165,-2.3164,-2.3163,-2.3162,-2.3157,-2.3157,-2.3158,-2.3187,0,0,-2.3161,-2.3161,0,0,0,0,0,0,0,0,-2.3187,-2.3188,-2.3188,-2.3187,-2.3185,-2.318,-2.3189,-2.3193,-2.3165,-2.3172,-2.3163,-2.3161,-2.3166,-2.3166,-2.3167,-2.3187,-2.3186,-2.3161,-2.3162,-2.3162,-2.3162,0,0,0,0,0,0,0,-2.3187,-2.3188,-2.32,-2.3188,-2.3186,-2.3178,-2.3178,-2.3189,-2.3176,-2.3172,-2.3169,-2.3169,-2.3165,-2.3167,-2.3167,-2.3186,-2.3161,-2.3162,-2.3162,-2.3163,-2.323,-2.3231,0,0,0,0,0,0,-2.3189,-2.3188,-2.32,-2.32,-2.3183,-2.318,-2.3179,-2.3183,-2.3175,-2.3173,-2.317,-2.3168,-2.3166,-2.3166,-2.3167,-2.3201,-2.3162,-2.3163,-2.3163,-2.3229,-2.323,-2.3232,0,0,0,0,0,0,-2.3189,-2.3191,-2.32,-2.3193,-2.3194,-2.3181,-2.3186,-2.3184,-2.3185,-2.3174,-2.3172,-2.3175,-2.3165,-2.3165,-2.3182,-2.32,-2.3163,-2.3164,-2.3227,-2.3229,-2.3231,-2.3269,0,0,0,0,0,0,-2.3189,-2.3191,-2.3201,-2.3194,-2.3195,-2.3216,-2.3187,-2.3184,-2.3187,-2.3184,-2.3178,-2.3176,-2.3164,-2.3181,-2.3183,-2.3201,-2.3165,-2.3226,-2.3228,-2.323,-2.3266,-2.3272,-2.3277,0,0,0,0,0,-2.3188,-2.3212,-2.3202,-2.3204,-2.3208,-2.3217,-2.3218,-2.3204,-2.3189,-2.3199,-2.3192,-2.3176,-2.3198,-2.3183,-2.3185,-2.3203,-2.3225,-2.3227,-2.323,-2.3264,-2.3271,-2.3277,0,0,0,0,0,0,-2.3221,-2.321,-2.32,-2.3221,-2.3221,-2.3212,-2.3225,-2.3212,-2.3215,-2.3212,-2.3194,-2.3193,-2.3213,-2.3209,-2.3194,-2.3231,-2.3208,-2.3212,-2.3233,-2.324,-2.3245,-2.3246,-2.3165,0,0,0,0,0,-2.3231,-2.324,-2.323,-2.325,-2.3251,-2.3238,-2.3242,-2.3231,-2.323,-2.3229,-2.3223,-2.3222,-2.3229,-2.3234,-2.3239,-2.3265,-2.3264,-2.3278,-2.3284,-2.3288,-2.3292,-2.3306,-2.3313,-2.3241,-2.3241,-2.3241,0,0,-2.3252,-2.3247,-2.3253,-2.3257,-2.3255,-2.3265,-2.3238,-2.3249,-2.3257,-2.3231,-2.3247,-2.3243,-2.324,-2.3262,-2.3272,-2.326,-2.3311,-2.3292,-2.3295,-2.3297,-2.331,-2.3317,-2.3323,-2.3243,-2.3243,-2.3242,0,0,-2.3295,-2.3291,-2.3309,-2.3307,-2.3305,-2.3297,-2.3301,-2.3295,-2.3291,-2.3307,-2.3288,-2.3296,-2.3308,-2.3308,-2.3309,-2.3353,-2.3338,-2.3355,-2.3384,-2.3398,-2.3404,-2.3409,-2.3426,-2.3432,-2.3358,-2.3358,-2.3358,0,-2.332,-2.3335,-2.3319,-2.3332,-2.3335,-2.3312,-2.333,-2.3329,-2.3329,-2.3332,-2.3318,-2.3333,-2.333,-2.3352,-2.3363,-2.3364,-2.337,-2.3356,-2.3405,-2.3409,-2.3414,-2.343,-2.3436,-2.336,-2.336,-2.336,-2.336,0,-2.3368,-2.3378,-2.3392,-2.3393,-2.3397,-2.3413,-2.34,-2.3406,-2.3395,-2.3388,-2.3405,-2.34,-2.3405,-2.3409,-2.3398,-2.343,-2.3423,-2.3408,-2.3385,-2.3423,-2.3438,-2.3444,-2.3364,-2.3363,-2.3362,-2.3362,0,0,-2.3432,-2.3424,-2.343,-2.3431,-2.3427,-2.3435,-2.3449,-2.3454,-2.3461,-2.3461,-2.3474,-2.3484,-2.347,-2.3472,-2.346,-2.3473,-2.351,-2.3456,-2.3455,-2.3467,-2.3547,-2.356,-2.3567,-2.35,-2.3501,-2.3502,-2.3548,0,-2.3474,-2.35,-2.3486,-2.3513,-2.3523,-2.3502,-2.3515,-2.3514,-2.3508,-2.3516,-2.3509,-2.3517,-2.3497,-2.3498,-2.3509,-2.3503,-2.3526,-2.3499,-2.3512,-2.3513,-2.3515,-2.3575,-2.3589,-2.3632,-2.3553,-2.3554,-2.3555,0,-2.3528,-2.3531,-2.356,-2.3555,-2.3559,-2.3571,-2.3575,-2.3582,-2.3581,-2.3576,-2.3578,-2.3564,-2.3579,-2.3555,-2.3576,-2.3558,-2.3562,-2.356,-2.3561,-2.3563,-2.3538,-2.358,-2.3646,-2.3653,-2.3564,-2.3563,-2.3562,0,-2.3574,-2.3586,-2.3605,-2.3606,-2.36,-2.3609,-2.3608,-2.3605,-2.361,-2.3613,-2.3616,-2.3621,-2.3624,-2.3628,-2.3616,-2.36,-2.3639,-2.3614,-2.3636,-2.3636,-2.3646,-2.3646,-2.3715,-2.3646,-2.3646,-2.3646,-2.3646,0,-2.3624,-2.3643,-2.3626,-2.3638,-2.3658,-2.3642,-2.3663,-2.3659,-2.3657,-2.3668,-2.3649,-2.3659,-2.3642,-2.3651,-2.3641,-2.3661,-2.3662,-2.3659,-2.3656,-2.3662,-2.3662,-2.3665,-2.3663,-2.3648,-2.3647,-2.3647,-2.3647,0,-2.368,-2.3669,-2.3689,-2.3682,-2.3681,-2.3696,-2.3691,-2.3702,-2.3694,-2.3709,-2.3711,-2.37,-2.3709,-2.3697,-2.3706,-2.3699,-2.3726,-2.3718,-2.3727,-2.3726,-2.3749,-2.3748,-2.3824,-2.3834,-2.3757,-2.3758,-2.3758,0,-2.3713,-2.3727,-2.3723,-2.3729,-2.3728,-2.3738,-2.3743,-2.3728,-2.3733,-2.3734,-2.3745,-2.3753,-2.3759,-2.3776,-2.3768,-2.3775,-2.3768,-2.3794,-2.3769,-2.3774,-2.3771,-2.3771,-2.3773,-2.38,-2.3801,-2.3802,-2.3802,0,-2.3775,-2.3769,-2.3776,-2.3782,-2.3789,-2.3792,-2.3795,-2.3801,-2.3785,-2.3792,-2.3802,-2.3807,-2.3816,-2.3825,-2.383,-2.3828,-2.3813,-2.381,-2.3816,-2.3822,-2.3828,-2.3827,-2.3743,-2.3809,-2.3808,-2.3808,-2.3807,-2.3807,-2.3822,-2.3834,-2.3833,-2.3842,-2.3842,-2.3845,-2.3856,-2.385,-2.3858,-2.3865,-2.3855,-2.3868,-2.3867,-2.3872,-2.3872,-2.3882,-2.3871,-2.3879,-2.3881,-2.3884,-2.3889,-2.3825,-2.3883,-2.3882,-2.3882,-2.3882,-2.3882,0,-2.3884,-2.3882,-2.3891,-2.3895,-2.3903,-2.3888,-2.389,-2.3897,-2.3909,-2.3909,-2.3916,-2.3928,-2.3937,-2.393,-2.3937,-2.3947,-2.3941,-2.395,-2.395,-2.395,-2.3897,-2.3892,-2.3955,-2.3955,-2.3955,-2.3955,-2.3955,-2.3955,-2.3917,-2.3937,-2.3931,-2.3952,-2.395,-2.3963,-2.3966,-2.3969,-2.3969,-2.3984,-2.3991,-2.3987,-2.3985,-2.3992,-2.3999,-2.3997,-2.4001,-2.4013,-2.4009,-2.396,-2.3953,-2.3947,-2.3942,-2.4014,-2.4014,-2.4061,-2.4062,-2.4062]}]]